BREEZE-KM R/B, 44909

Orbit data source: Space-Track

BREEZE-KM R/B, 44909 is space debris in LEO originally from a launch on Thu, 26 Dec 2019 UTC via an ROKOT launch vehicle from the Plesetsk Missile And Space Complex (PKMTR). Debris objects in space refer to the collection of defunct objects orbiting the Earth. Examples of debris include non-operational satellites, rocket bodies, and fragments generated from explosions, collisions, or faulty payload assembly.

Loading next visibility...
Identifier
44909, 2019-096E
Orbit
LEO
Country
Flag of CISCIS
Related business
Manufacturer
SNIU/RESH
Mission
Operational Amateur Communications/Amateur Geodetic
Bus & Motor
YUBILYENIY, Unknown motor
Mass
~2,420 kg wet, ~50 kg dry
Launch date (UTC)
2019-12-26 (6 years ago)
Launch vehicle
ROKOT
Launch site
Plesetsk Missile And Space Complex (PKMTR)
Object type
Payload
Rocket body
Debris
Shape & HBR
Cyl + Hex Box + Sphere, 2.5 m
Radar Cross Section
16.640 m², Large (>1 m²)

Expand to show TLE details & history
Last TLE update: 2 days ago

TLE from 2 days ago
0 BREEZE-KM R/B
1 44909U 19096E   26171.44517356  .00000024  00000-0  45367-4 0  9998
2 44909  82.5221 337.5395 0218289 136.5763 225.2766 12.79748893302760
Epoch: 2026-06-20T10:41Z
TLE epoch observation values (Epoch: 2026-06-20T10:41:02.995Z)
Latitude
-0.00003°
Longitude
-91.38268°
Altitude
1,465.667 km
Speed
7.074 km/s
True Right ascension
22h 30m 09s
True Declination
0° 00' 00"
Sunlit
Object was in daylight at epoch
Visualization orbit readout
Latitude
Unknown
Longitude
Unknown
Altitude
Unknown
Speed
Unknown
Apparent Right ascension
Unknown
Apparent Declination
Unknown
Sunlit
N/A
Visualization observer readout
Local Sidereal Time
21:34:15
Azimuth
Unknown
Elevation
Unknown
Doppler factor
Unknown
Orbital elements
Apogee altitude
1,508.25 km
Perigee altitude
1,171.303 km
Semi-major axis
7,717.913 km
Eccentricity
0.02183
Inclination
82.5221°
RAAN
337.5395°
Arg. of periapsis
136.5763°
True anomaly
223.53309°
Mean anomaly
225.2766°
Eccentric anomaly
224.4015°
Mean motion
3.20106 °/min
Orbital period
112.46 mins
BSTAR
0.000045367
Loading maneuver chart data...
Computing Atmospheric mass density...
Loading historical data...
Loading historical data...
Loading historical data...
Loading historical data...
Loading historical data...
Loading historical data...
Loading historical data...

Documentation

Showing up to 5 results
|